Weather History for Cortez, CO

Change the Weather History Date:

Sunday, July 14, 2013

  Actual Average Record
Temperature  
Mean Temperature 80 °F 72 °F  
Max Temperature 94 °F 91 °F 100 °F (2003)
Min Temperature 65 °F 53 °F 44 °F (1997)
Degree Days  
Heating Degree Days 0 0  
Month to date heating degree days 0 0  
Since 1 June heating degree days 12 75  
Since 1 July heating degree days 0 0  
Cooling Degree Days 15 7  
Month to date cooling degree days 159 79  
Year to date cooling degree days 286 142  
Since 1 June cooling degree days 286 137  
Growing Degree Days 30 (Base 50)    
Moisture  
Dew Point 51 °F    
Average Humidity 49    
Maximum Humidity 78    
Minimum Humidity 19    
Precipitation  
Precipitation 0.15 in 0.04 in 0.15 in (2013)
Month to date precipitation 0.16 0.26  
Year to date precipitation 3.49 5.88  
Sea Level Pressure  
Sea Level Pressure 29.93 in    
Wind  
Wind Speed 6 mph (NE)    
Max Wind Speed 37 mph    
Max Gust Speed 45 mph    
Visibility 9 miles    
Events Rain , Thunderstorm    
T = Trace of Precipitation, MM = Missing Value Source: NWS Daily Summary

Daily Weather History Graph

Daily Weather History Graph

Search for Another Location

Airport:

Trip Planner

Search our weather history database for the weather conditions in past years. The results will help you decide how hot, cold, wet, or windy it might be!

Date:

Astronomy

Jul. 14, 2013 Rise Set
Actual Time 6:05 AM MDT 8:35 PM MDT
Civil Twilight 5:35 AM MDT 9:05 PM MDT
Nautical Twilight 4:57 AM MDT 9:42 PM MDT
Astronomical Twilight 4:16 AM MDT 10:23 PM MDT
Moon 12:16 PM MDT (7/14) 11:59 PM MDT (7/14)
Length of Visible Light 15h 30m
Length of Day
14h 29m
Waxing Crescent, 35% of the Moon is Illuminated
Jul 14
Waxing Crescent
Jul 15
First Quarter
Jul 22
Full
Jul 29
Last Quarter
Aug 6
New

Hourly Weather History & Observations

Time (MDT) Temp. Dew Point Humidity Pressure Visibility Wind Dir Wind Speed Gust Speed Precip Events Conditions
12:53 AM 73.0 °F 48.9 °F 42% 29.93 in 10.0 mi Calm Calm - N/A   Partly Cloudy
1:53 AM 72.0 °F 48.9 °F 44% 29.91 in 10.0 mi Calm Calm - N/A   Scattered Clouds
2:53 AM 69.1 °F 50.0 °F 51% 29.92 in 10.0 mi NNE 3.5 mph - N/A   Mostly Cloudy
3:53 AM 69.1 °F 51.1 °F 53% 29.93 in 10.0 mi Calm Calm - N/A   Clear
4:53 AM 66.0 °F 52.0 °F 60% 29.95 in 10.0 mi Calm Calm - N/A   Clear
5:53 AM 66.9 °F 51.1 °F 57% 29.95 in 10.0 mi ENE 3.5 mph - N/A   Mostly Cloudy
6:53 AM 68.0 °F 51.1 °F 55% 29.96 in 10.0 mi ENE 3.5 mph - N/A   Partly Cloudy
7:53 AM 69.1 °F 51.1 °F 53% 29.97 in 10.0 mi Calm Calm - N/A   Clear
8:53 AM 73.9 °F 52.0 °F 46% 29.97 in 10.0 mi SE 3.5 mph - N/A   Clear
9:53 AM 80.1 °F 50.0 °F 35% 29.95 in 10.0 mi Calm Calm - N/A   Clear
10:53 AM 84.0 °F 51.1 °F 32% 29.92 in 10.0 mi Variable 4.6 mph - N/A   Clear
11:53 AM 86.0 °F 50.0 °F 29% 29.91 in 10.0 mi West 9.2 mph - N/A   Clear
12:53 PM 88.0 °F 46.0 °F 23% 29.89 in 10.0 mi Calm Calm - N/A   Clear
1:53 PM 90.0 °F 46.0 °F 22% 29.85 in 10.0 mi Variable 5.8 mph - N/A   Clear
2:53 PM 91.9 °F 45.0 °F 20% 29.83 in 10.0 mi WSW 10.4 mph - N/A   Clear
3:53 PM 93.0 °F 45.0 °F 19% 29.80 in 10.0 mi NNW 13.8 mph 18.4 mph N/A   Mostly Cloudy
4:53 PM 91.9 °F 46.0 °F 21% 29.79 in 10.0 mi NNW 11.5 mph - N/A   Clear
5:53 PM 89.1 °F 44.1 °F 21% 29.78 in 10.0 mi NW 10.4 mph - N/A   Scattered Clouds
6:20 PM 84.2 °F 46.4 °F 27% 30.07 in 10.0 mi Variable 3.5 mph - N/A Thunderstorm Mostly Cloudy
6:53 PM 82.0 °F 46.9 °F 29% 29.83 in 10.0 mi SW 9.2 mph - N/A Thunderstorm Thunderstorm
7:05 PM 73.4 °F 53.6 °F 50% 30.13 in 2.0 mi North 20.7 mph 44.9 mph 0.07 in Rain , Thunderstorm Thunderstorms and Rain
7:08 PM 71.6 °F 51.8 °F 50% 30.13 in 1.2 mi Calm Calm - 0.13 in Rain , Thunderstorm Heavy Thunderstorms and Rain
7:17 PM 69.8 °F 53.6 °F 56% 30.10 in 2.0 mi East 12.7 mph - 0.15 in Rain , Thunderstorm Thunderstorms and Rain
7:24 PM 71.6 °F 55.4 °F 57% 30.09 in 10.0 mi East 16.1 mph 21.9 mph 0.15 in Rain , Thunderstorm Light Thunderstorms and Rain
7:53 PM 72.0 °F 54.0 °F 53% 29.85 in 10.0 mi ESE 11.5 mph 19.6 mph 0.15 in Thunderstorm Overcast
8:00 PM 71.6 °F 55.4 °F 57% 30.10 in 10.0 mi Variable 5.8 mph - N/A   Overcast
8:53 PM 70.0 °F 61.0 °F 73% 29.85 in 10.0 mi NE 5.8 mph - N/A   Clear
9:53 PM 68.0 °F 60.1 °F 76% 29.86 in 10.0 mi North 4.6 mph - N/A   Clear
10:53 PM 68.0 °F 60.1 °F 76% 29.87 in 10.0 mi SE 4.6 mph - N/A   Clear
11:53 PM 66.9 °F 59.0 °F 76% 29.88 in 10.0 mi ENE 6.9 mph - N/A   Mostly Cloudy